Regional Weather Roundup
Issued by NWS Midland/Odessa, TX

Home | Current Version | Previous Version | Text Only | Print | Product List | Glossary On
Versions: 1 2 3 4 5 6 7 8 9 10 11 12 13 14 15 16 17 18 19 20 21 22 23 24 25 26 27 28 29 30 31 32 33 34 35 36 37 38 39 40 41 42 43 44 45 46 47 48 49 50
000
ASUS44 KMAF 011110
RWRMAF
MIDLAND AREA WEATHER ROUNDUP
NATIONAL WEATHER SERVICE MIDLAND TX
600 AM CDT SUN MAY 01 2016

...IN SOUTHWEST TEXAS AND SOUTHEAST NEW MEXICO...

CITY           SKY/WX    TMP DP  RH WIND       PRES   REMARKS
ALPINE         CLEAR     53  29  38 NW3       29.91R
ANDREWS        CLOUDY    50  33  52 MISG      29.98R
ARTESIA        CLOUDY    48  36  61 N18G24    30.05R
BIG SPRING     CLEAR     50  34  54 NE30G40   29.98R
CARLSBAD       CLOUDY    51  34  52 N17       30.01R
DRYDEN           N/A     67  57  70 E17G24    29.81R
FORT STOCKTON  PTCLDY    59  45  59 E10       29.86R
GUAD PASS      CLOUDY    46  37  71 NE44G52   29.92R WCI  35
HOBBS          CLOUDY    46  32  57 NE29G38   29.99R WCI  37
MARFA          CLEAR     38  24  57 N5        29.88R WCI  34
MIDLAND AIRPK  PTCLDY    54  38  54 NE23G33   29.97R
MIDLAND INTL   MOCLDY    55  38  52 NE26G35   29.95R
ODESSA         CLOUDY    55  38  52 NE25G37   29.95R
PECOS          CLEAR     60  47  62 NE17G25   29.88R
PRESIDIO       FAIR      61  24  24 MISG      29.76R
SEMINOLE       CLOUDY    48  32  54 NE23G32   30.00S
SNYDER           N/A     49  37  61 N21       30.00R
WINK           CLEAR     55  38  52 NE24G37   29.90R
$$
...OTHER STATIONS IN TEXAS...

CITY           SKY/WX    TMP DP  RH WIND       PRES   REMARKS
ABILENE        CLEAR     52  45  77 N21G30    29.97S
AMARILLO       CLOUDY    40  33  76 N20G26    30.11R WCI  30
AUSTIN         CLEAR     64  63  96 N7        29.82S
BROWNSVILLE    CLOUDY    77  77 100 E5        29.71S FOG
CORPUS CHRISTI MOCLDY    79  74  84 E8        29.73R
DALLAS FTW     PTCLDY    60  48  64 N13       29.93R
DEL RIO        CLOUDY    66  62  87 CALM      29.79R
EL PASO        PTCLDY    55  37  50 E13       29.89R
HOUSTON INT    CLOUDY    71  68  90 N8        29.79S
LUBBOCK        MOCLDY    45  33  63 N24G36    30.04S WCI  36
SAN ANGELO     MOCLDY    57  52  83 NE8       29.94R
SAN ANTONIO    PTCLDY    68  63  84 NE9       29.81R
WACO           CLEAR     60  59  96 N7        29.88R
WICHITA FALLS  NOT AVBL
$$
...OTHER LOCATIONS IN NEW MEXICO...

CITY           SKY/WX    TMP DP  RH WIND       PRES   REMARKS
ALAMAGORDO     PTCLDY    59  28  31 W15       29.84R
ALBUQUERQUE    CLOUDY    42  31  64 E31G44    29.95R WCI  31
CANNON AFB     CLOUDY    39  32  76 NE29G38   30.07R WCI  28
CLOVIS         CLOUDY    39  30  70 NE25G33   30.10S WCI  28
HOLLOMAN AFB   MOCLDY    57  34  41 W12       29.84R
ROSWELL        CLOUDY    46  32  58 N16       30.05R WCI  39
RUIDOSO        LGT RAIN  32  32 100 S10       30.08R WCI  24
SANTA FE       CLOUDY    37  35  92 N10       30.00S WCI  30
TRUTH OR CONSE PTCLDY    49  34  56 N18G30    29.87R
TUCUMCARI      CLOUDY    41  34  76 NE14G23   30.11F WCI  33
$$



USA.gov is the U.S. government's official web portal to all federal, state and local government web resources and services.